Eveleth, MN

2:54 AM CDT on April 28, 2017 (GMT -0500)
Eveleth-Virginia Municipal

Weather History for KEVM - May, 2014

Change the Weather History Date:

Sunday, May 18, 2014

  Actual Average Record
Temperature  
Mean Temperature 52 °F -  
Max Temperature 71 °F 60 °F 89 °F (1998)
Min Temperature 33 °F 37 °F 26 °F (2002)
Degree Days  
Heating Degree Days 13    
Growing Degree Days 2 (Base 50)    
Moisture  
Dew Point 34 °F    
Average Humidity 52    
Maximum Humidity 93    
Minimum Humidity 21    
Precipitation  
Precipitation 0.00 in - - ()
Sea Level Pressure  
Sea Level Pressure 29.97 in    
Wind  
Wind Speed 3 mph (SW)    
Max Wind Speed 15 mph    
Max Gust Speed 28 mph    
Visibility 10 miles    
Events Rain    
Averages and records for this station are not official NWS values.
T = Trace of Precipitation, MM = Missing Value Source: NWS Daily Summary

Daily Weather History Graph

Daily Weather History Graph

Search for Another Location

Airport or City:

Trip Planner

Search our weather history database for the weather conditions in past years. The results will help you decide how hot, cold, wet, or windy it might be!

Date:

Astronomy

May. 18, 2014 Rise Set
Actual Time 5:29 AM CDT 8:43 PM CDT
Civil Twilight 4:52 AM CDT 9:21 PM CDT
Nautical Twilight 4:04 AM CDT 10:09 PM CDT
Astronomical Twilight 3:03 AM CDT 11:10 PM CDT
Moon No Moon Rise 9:22 AM CDT (5/18)
Length of Visible Light 16h 28m
Length of Day
15h 14m
Waning Gibbous, 81% of the Moon is Illuminated
May 18
Waning Gibbous
May 21
Last Quarter
May 28
New
Jun 5
First Quarter
Jun 12
Full

Hourly Weather History & Observations

Time (CDT) Temp. Windchill Dew Point Humidity Pressure Visibility Wind Dir Wind Speed Gust Speed Precip Events Conditions
12:13 AM 44.6 °F - 32.0 °F 61% 29.95 in 10.0 mi Calm Calm - N/A   Clear
12:34 AM 44.6 °F - 32.0 °F 61% 29.95 in 10.0 mi Calm Calm - N/A   Clear
12:53 AM 42.8 °F - 32.0 °F 66% 29.95 in 10.0 mi Calm Calm - N/A   Clear
1:13 AM 42.8 °F - 32.0 °F 66% 29.95 in 10.0 mi Calm Calm - N/A   Clear
1:34 AM 39.2 °F - 32.0 °F 75% 29.95 in 10.0 mi Calm Calm - N/A   Clear
1:54 AM 39.2 °F - 32.0 °F 75% 29.95 in 10.0 mi Calm Calm - N/A   Clear
2:13 AM 39.2 °F - 33.8 °F 81% 29.95 in 10.0 mi Calm Calm - N/A   Clear
2:34 AM 39.2 °F - 33.8 °F 81% 29.96 in 10.0 mi Calm Calm - N/A   Clear
2:53 AM 35.6 °F - 32.0 °F 87% 29.95 in 10.0 mi Calm Calm - N/A   Clear
3:14 AM 35.6 °F - 33.8 °F 93% 29.96 in 10.0 mi Calm Calm - N/A   Clear
3:33 AM 35.6 °F - 33.8 °F 93% 29.96 in 10.0 mi Calm Calm - N/A   Clear
3:54 AM 35.6 °F - 33.8 °F 93% 29.97 in 10.0 mi Calm Calm - N/A   Clear
4:13 AM 35.6 °F 32.8 °F 33.8 °F 93% 29.97 in 10.0 mi WNW 3.5 mph - N/A   Scattered Clouds
4:34 AM 33.8 °F - 32.0 °F 93% 29.97 in 10.0 mi Calm Calm - N/A   Scattered Clouds
4:54 AM 33.8 °F - 32.0 °F 93% 29.97 in 10.0 mi Calm Calm - N/A   Scattered Clouds
5:13 AM 35.6 °F - 33.8 °F 93% 29.97 in 10.0 mi Calm Calm - N/A   Clear
5:34 AM 35.6 °F - 32.0 °F 87% 29.98 in 10.0 mi Calm Calm - N/A   Scattered Clouds
5:54 AM 33.8 °F - 32.0 °F 93% 29.98 in 10.0 mi Calm Calm - N/A   Scattered Clouds
6:13 AM 33.8 °F - 32.0 °F 93% 29.98 in 10.0 mi Calm Calm - N/A   Scattered Clouds
6:34 AM 35.6 °F - 33.8 °F 93% 29.99 in 10.0 mi Calm Calm - N/A   Mostly Cloudy
6:54 AM 39.2 °F - 37.4 °F 93% 29.99 in 10.0 mi Calm Calm - N/A   Scattered Clouds
7:13 AM 42.8 °F - 37.4 °F 81% 29.98 in 10.0 mi Calm Calm - N/A   Clear
7:33 AM 44.6 °F - 37.4 °F 76% 29.99 in 10.0 mi Calm Calm - N/A   Clear
7:54 AM 46.4 °F - 37.4 °F 71% 29.99 in 10.0 mi Calm Calm - N/A   Clear
8:14 AM 51.8 °F - 39.2 °F 62% 29.99 in 10.0 mi Calm Calm - N/A   Clear
8:33 AM 53.6 °F - 37.4 °F 54% 29.99 in 10.0 mi Calm Calm - N/A   Clear
8:53 AM 57.2 °F - 37.4 °F 48% 29.99 in 10.0 mi WSW 5.8 mph - N/A   Clear
9:14 AM 57.2 °F - 35.6 °F 44% 29.99 in 10.0 mi Calm Calm - N/A   Clear
9:33 AM 59.0 °F - 35.6 °F 42% 29.98 in 10.0 mi Calm Calm - N/A   Clear
9:54 AM 62.6 °F - 33.8 °F 34% 29.98 in 10.0 mi SSW 5.8 mph - N/A   Scattered Clouds
10:14 AM 62.6 °F - 33.8 °F 34% 29.99 in 10.0 mi WSW 9.2 mph - N/A   Mostly Cloudy
10:33 AM 62.6 °F - 33.8 °F 34% 29.99 in 10.0 mi WSW 9.2 mph - N/A   Scattered Clouds
10:54 AM 64.4 °F - 33.8 °F 32% 29.99 in 10.0 mi SW 8.1 mph - N/A   Scattered Clouds
11:13 AM 64.4 °F - 33.8 °F 32% 29.99 in 10.0 mi SW 8.1 mph - N/A   Mostly Cloudy
11:33 AM 64.4 °F - 32.0 °F 30% 29.99 in 10.0 mi West 9.2 mph - N/A   Mostly Cloudy
11:54 AM 64.4 °F - 32.0 °F 30% 29.98 in 10.0 mi West 6.9 mph - N/A   Scattered Clouds
12:13 PM 71.6 °F - 32.0 °F 23% 29.98 in 10.0 mi West 13.8 mph - N/A   Scattered Clouds
12:34 PM 69.8 °F - 30.2 °F 23% 29.98 in 10.0 mi WSW 12.7 mph 27.6 mph N/A   Scattered Clouds
12:53 PM 69.8 °F - 30.2 °F 23% 29.97 in 10.0 mi WSW 10.4 mph 24.2 mph N/A   Scattered Clouds
1:14 PM 69.8 °F - 28.4 °F 21% 29.97 in 10.0 mi West 15.0 mph 24.2 mph N/A   Scattered Clouds
1:34 PM 71.6 °F - 30.2 °F 22% 29.97 in 10.0 mi West 15.0 mph 23.0 mph N/A   Clear
1:53 PM 68.0 °F - 26.6 °F 21% 29.97 in 10.0 mi WSW 9.2 mph 17.3 mph N/A   Scattered Clouds
2:14 PM 66.2 °F - 28.4 °F 24% 29.98 in 10.0 mi WSW 12.7 mph 18.4 mph N/A   Mostly Cloudy
2:34 PM 66.2 °F - 30.2 °F 26% 29.98 in 10.0 mi SW 8.1 mph - N/A   Overcast
2:53 PM 68.0 °F - 32.0 °F 26% 29.98 in 10.0 mi WSW 5.8 mph - N/A   Mostly Cloudy
3:14 PM 69.8 °F - 32.0 °F 25% 29.97 in 10.0 mi SSW 9.2 mph - N/A   Mostly Cloudy
3:34 PM 68.0 °F - 32.0 °F 26% 29.96 in 10.0 mi WSW 5.8 mph 17.3 mph N/A   Scattered Clouds
3:53 PM 69.8 °F - 32.0 °F 25% 29.96 in 10.0 mi WSW 10.4 mph 19.6 mph N/A   Scattered Clouds
4:14 PM 68.0 °F - 32.0 °F 26% 29.96 in 10.0 mi SSW 12.7 mph 18.4 mph N/A   Mostly Cloudy
4:34 PM 66.2 °F - 32.0 °F 28% 29.97 in 10.0 mi SSW 15.0 mph 26.5 mph N/A   Mostly Cloudy
4:53 PM 68.0 °F - 33.8 °F 28% 29.96 in 10.0 mi SSW 5.8 mph - N/A   Mostly Cloudy
5:14 PM 69.8 °F - 32.0 °F 25% 29.96 in 10.0 mi WSW 9.2 mph - N/A   Mostly Cloudy
5:34 PM 71.6 °F - 32.0 °F 23% 29.95 in 10.0 mi WSW 5.8 mph - N/A   Overcast
5:53 PM 68.0 °F - 32.0 °F 26% 29.95 in 10.0 mi WSW 6.9 mph - N/A   Mostly Cloudy
6:14 PM 68.0 °F - 32.0 °F 26% 29.95 in 10.0 mi SW 8.1 mph - N/A   Mostly Cloudy
6:33 PM 66.2 °F - 32.0 °F 28% 29.96 in 10.0 mi SW 6.9 mph - N/A   Mostly Cloudy
6:54 PM 66.2 °F - 32.0 °F 28% 29.96 in 10.0 mi SW 10.4 mph - N/A   Mostly Cloudy
7:14 PM 64.4 °F - 32.0 °F 30% 29.96 in 10.0 mi SW 10.4 mph 20.7 mph N/A   Mostly Cloudy
7:33 PM 64.4 °F - 32.0 °F 30% 29.97 in 10.0 mi WSW 12.7 mph 19.6 mph N/A   Mostly Cloudy
7:54 PM 62.6 °F - 32.0 °F 32% 29.97 in 10.0 mi SW 8.1 mph - N/A   Overcast
8:13 PM 62.6 °F - 32.0 °F 32% 29.97 in 10.0 mi SW 4.6 mph - N/A   Overcast
8:34 PM 62.6 °F - 32.0 °F 32% 29.98 in 10.0 mi SSW 3.5 mph - N/A   Scattered Clouds
8:53 PM 60.8 °F - 32.0 °F 34% 29.98 in 10.0 mi South 3.5 mph - N/A   Scattered Clouds
9:14 PM 55.4 °F - 35.6 °F 47% 29.98 in 10.0 mi Calm Calm - N/A   Scattered Clouds
9:34 PM 53.6 °F - 33.8 °F 47% 29.98 in 10.0 mi Calm Calm - N/A   Scattered Clouds
9:53 PM 51.8 °F - 35.6 °F 54% 29.99 in 10.0 mi Calm Calm - N/A   Scattered Clouds
10:14 PM 51.8 °F - 35.6 °F 54% 29.99 in 10.0 mi Calm Calm - N/A   Mostly Cloudy
10:34 PM 51.8 °F - 39.2 °F 62% 29.99 in 10.0 mi Calm Calm - N/A   Overcast
10:53 PM 51.8 °F - 39.2 °F 62% 30.00 in 10.0 mi Calm Calm - N/A   Overcast
11:13 PM 51.8 °F - 39.2 °F 62% 30.00 in 10.0 mi Calm Calm - N/A Rain Light Rain
11:34 PM 51.8 °F - 41.0 °F 67% 30.00 in 10.0 mi Calm Calm - N/A Rain Light Rain
11:53 PM 51.8 °F - 44.6 °F 76% 30.01 in 10.0 mi Calm Calm - N/A Rain Light Rain